Regional Weather Roundup
Issued by NWS

Home | Current Version | Previous Version | Text Only | Print | Product List | Glossary Off
Versions: 1 2 3 4 5 6 7 8 9 10 11 12 13 14 15 16 17 18 19 20 21 22 23 24 25 26 27 28 29 30 31 32 33 34 35 36 37 38 39 40 41 42 43 44 45 46 47 48 49 50

546
ASUS43 KMKX 300700
RWRWI

WISCONSIN REGIONAL WEATHER ROUNDUP
NATIONAL WEATHER SERVICE MILWAUKEE/SULLIVAN WI
200 AM CDT SAT APR 30 2016

NOTE: "FAIR" INDICATES FEW OR NO CLOUDS BELOW 12,000 FEET WITH NO
SIGNIFICANT WEATHER AND/OR OBSTRUCTIONS TO VISIBILITY.

WIZ001-002-006>008-014>016-023>028-300800-
NORTHWEST WISCONSIN

CITY           SKY/WX    TMP DP  RH WIND       PRES   REMARKS
SUPERIOR ARPT  CLEAR     36  33  88 CALM      30.23S
ASHLAND        CLEAR     28  28 100 NE5       30.24R WCI  23
HAYWARD        MOCLDY    34  27  75 NE8       30.19R WCI  27
SIREN          CLEAR     39  29  68 NE5       30.18S
CUMBERLAND     CLEAR     37  30  75 NE5       30.15S WCI  34
RICE LAKE      CLEAR     41  31  68 N5        30.17S
CHETEK         CLEAR     43  32  65 NE5       30.15S
LADYSMITH      CLEAR     40  31  69 NE3       30.16F
EAU CLAIRE     NOT AVBL
MENOMONIE      PTCLDY    44  34  69 N3        30.14R
NEW RICHMOND   PTCLDY    41  33  73 NE5       30.15R
OSCEOLA        CLEAR     44  32  64 NE6       30.18R
$$

WIZ003>005-009-010-017-018-300800-
NORTH CENTRAL WISCONSIN

CITY           SKY/WX    TMP DP  RH WIND       PRES   REMARKS
MANITOWISH WTR CLOUDY    37  31  77 NE5       30.18S WCI  34
ARBOR VITAE    CLEAR     42  30  63 CALM      30.17S
WOODRUFF       CLEAR     42  30  63 CALM      30.17S
RHINELANDER    CLEAR     38  29  70 E5        30.18R WCI  34
EAGLE RIVER    CLEAR     35  29  80 CALM      30.17S
LAND O LAKES   CLEAR     32  28  87 CALM      30.19S
PHILLIPS       CLEAR     37  30  77 NE5       30.16R WCI  33
TOMAHAWK       CLEAR     31  30  94 CALM      30.16S
MEDFORD        CLEAR     35  35  97 NE3       30.14R
MERRILL        PTCLDY    35  32  88 E5        30.17S WCI  31
$$

WIZ029-030-035-036-043>047-300800-
CENTRAL WISCONSIN

CITY           SKY/WX    TMP DP  RH WIND       PRES   REMARKS
WAUSAU         PTCLDY    39  34  82 E5        30.15R
MOSINEE        CLOUDY    37  32  81 E6        30.17R WCI  33
MARSHFIELD     CLOUDY    42  33  70 E6        30.13R
STEVENS POINT  PTCLDY    36  32  87 CALM      30.16R
WAUPACA        CLOUDY    39  34  82 N5        30.16R
WAUTOMA        NOT AVBL
WISC RAPIDS    CLOUDY    41  31  67 E6        30.15R
CAMP DOUGLAS   NOT AVBL
$$

WIZ011>013-019>022-031-037>040-048>050-300800-
NORTHEAST WISCONSIN

CITY           SKY/WX    TMP DP  RH WIND       PRES   REMARKS
ANTIGO         CLEAR     35  31  85 CALM      30.17R
SHAWANO        PTCLDY    39  35  85 CALM      30.16F
OCONTO         CLEAR     34  34 100 N3        30.16F
STURGEON BAY   CLEAR     41  27  56 NE8       30.18S
GREEN BAY      CLEAR     38  34  85 NW3       30.16R
MANITOWOC      NOT AVBL
APPLETON       CLEAR     39  28  65 NE5       30.13S
CLINTONVILLE   CLEAR     37  32  81 CALM      30.16S
OSHKOSH        PTCLDY    41  31  67 CALM      30.14R
$$

WIZ032>034-041-042-053>061-300800-
SOUTHWEST WISCONSIN

CITY           SKY/WX    TMP DP  RH WIND       PRES   REMARKS
LA CROSSE      CLOUDY    40  38  93 CALM      30.12R
SPARTA         CLOUDY    35  34  99 CALM      30.13S
VIROQUA        CLOUDY    41  37  84 E7        30.10S
BOSCOBEL       MOCLDY    41  39  93 CALM      30.10F
PRAIRIE DU CHI CLOUDY    40  37  88 CALM      30.09S
PLATTEVILLE    CLOUDY    40  39  93 E9        30.08F WCI  35
$$

WIZ056-057-062-063-064-067-068-300800-
SOUTH CENTRAL WISCONSIN

CITY           SKY/WX    TMP DP  RH WIND       PRES   REMARKS
REEDSBURG      CLOUDY    40  35  83 CALM      30.13R
BARABOO/DELLS  CLOUDY    42  35  77 SE6       30.13R
LONE ROCK      NOT AVBL
MINERAL POINT  PTCLDY    41  37  87 E8        30.09F
MADISON        CLOUDY    42  37  82 NE5       30.13R
MIDDLETON      CLOUDY    44  38  79 SE6       30.13R
WATERTOWN      CLOUDY    41  33  71 E6        30.13R
MONROE         CLOUDY    41  37  87 NE6       30.10S
JANESVILLE     CLOUDY    43  39  87 E7        30.11R
$$

WIZ051-052-058>065-066-070>072-300800-
SOUTHEAST WISCONSIN

CITY           SKY/WX    TMP DP  RH WIND       PRES   REMARKS
MILWAUKEE      CLOUDY    42  32  67 NE5       30.13S
WAUKESHA       CLOUDY    39  30  70 NE3       30.14R
MILWAUKEE/TIMM CLOUDY    41  30  65 CALM      30.14S
RACINE         CLOUDY    45  34  65 E9        30.13F
BURLINGTON     CLOUDY    41  35  77 NE5       30.12R
KENOSHA        CLOUDY    43  35  73 NE7       30.11F
FOND DU LAC    PTCLDY    36  30  79 CALM      30.15R
SHEBOYGAN      CLOUDY    34  29  82 SW5       30.14R WCI  30
WEST BEND      CLOUDY    34  32  93 CALM      30.14R
JUNEAU         CLOUDY    39  28  65 NE3       30.15R
$$

LSZ147-162-300800-
LAKE SUPERIOR

STATION/POSITION TIME  TEMP    WIND        PRES    WAVE
                       AIR SEA DIR/SP/G            HT/PER
                 (UTC) (F)     (DEG/KT/KT) (MB)    (FT/S)
W MID LAKE BUOY  0550   39 36   40/ 10/ 12 1024.6F   1
DEVILS ISLAND    0600   39      50/ 11/ 11 1024.7R
SAXON HARBOR     0640   31     200/  3/  3 1023.4R
$$

LMZ867-665-643>646-300800-
LAKE MICHIGAN

STATION/POSITION TIME  TEMP    WIND        PRES    WAVE
                       AIR SEA DIR/SP/G            HT/PER
                 (UTC) (F)     (DEG/KT/KT) (MB)    (FT/S)
CHAMBERS ISLAND  0640   41      20/  8/ 10 1022.0R
N MID LAKE BUOY  0550   41 38   30/  6/  8 1022.0R   0
NORTHPORT PIER   0600   42     350/  3/  5 1022.0R
ALGOMA LAKESHORE 0615          340/  8/  9   N/A
KEWAUNEE LAKESHO 0600   42     330/  2/  4 1020.3R
SHEBOYGAN LAKESH 0600   42     330/  4/  5 1021.0F
PORT WASHINGTON  0600   41     320/  2/  4 1021.0F
S MID LAKE BUOY  0550   42 40   70/  8/ 10 1020.1F   1
KENOSHA   LAKESH 0600   42      80/  7/  9 1019.6F
$$

TC  - TEMPERATURE IN CELSIUS
VSB - VISIBILITY IN STATUTE MILES
WCI - WIND CHILL INDEX
HX  - HEAT INDEX





USA.gov is the U.S. government's official web portal to all federal, state and local government web resources and services.